When you browse on this site, cookies collect data to enhance your experience and personalize the content and advertising you see.
Visit our Privacy Policy to learn more. By continuing to use the site, you agree to this use of cookies and data.
  • Em Portugal
  • Lista de países
  • Para 7 dias
  • Temperatura da água
  • Mapa do tempo
  • Widgets de tempo
  • user-avatar
    Iniciar Sessão

    Previsão horária em Vlora

    Hoje, 19 Novembro, Terça-feira

    Tempo Temperatura Precipitação Vento Pressão Humidade
    00:00 +14°C° 0 mm 5 m/s 764 mmHg 78%
    01:00 +14°C° 0 mm 5 m/s 764 mmHg 75%
    02:00 +14°C° 0 mm 4 m/s 764 mmHg 74%
    03:00 +14°C° 0 mm 4 m/s 764 mmHg 72%
    04:00 +14°C° 0 mm 4 m/s 764 mmHg 70%
    05:00 +14°C° 0.1 mm 4 m/s 764 mmHg 70%
    06:00 +14°C° 0.1 mm 4 m/s 764 mmHg 70%
    07:00 +16°C° 0.1 mm 3 m/s 764 mmHg 70%
    08:00 +17°C° 0.2 mm 4 m/s 764 mmHg 68%
    09:00 +18°C° 0.2 mm 4 m/s 764 mmHg 66%
    10:00 +19°C° 0.2 mm 5 m/s 764 mmHg 64%
    11:00 +19°C° 0.5 mm 5 m/s 764 mmHg 66%
    12:00 +19°C° 0.5 mm 6 m/s 763 mmHg 69%
    13:00 +17°C° 0.5 mm 7 m/s 763 mmHg 71%
    14:00 +17°C° 1.9 mm 7 m/s 762 mmHg 74%
    15:00 +17°C° 1.9 mm 7 m/s 762 mmHg 77%
    16:00 +16°C° 1.9 mm 7 m/s 761 mmHg 80%
    17:00 +16°C° 1.8 mm 7 m/s 761 mmHg 82%
    18:00 +16°C° 1.8 mm 8 m/s 761 mmHg 84%
    19:00 +16°C° 1.8 mm 9 m/s 761 mmHg 87%
    20:00 +16°C° 1.6 mm 9 m/s 761 mmHg 86%
    21:00 +16°C° 1.6 mm 9 m/s 761 mmHg 85%
    22:00 +16°C° 1.6 mm 10 m/s 761 mmHg 85%
    23:00 +16°C° 6.2 mm 9 m/s 760 mmHg 88%

    Amanhã, 20 Novembro, Quarta-feira

    Tempo Temperatura Precipitação Vento Pressão Humidade
    00:00 +16°C° 6.2 mm 9 m/s 760 mmHg 91%
    01:00 +15°C° 6.2 mm 9 m/s 759 mmHg 94%
    02:00 +15°C° 5.1 mm 9 m/s 759 mmHg 92%
    03:00 +15°C° 5.1 mm 9 m/s 759 mmHg 90%
    04:00 +15°C° 5.1 mm 9 m/s 759 mmHg 88%
    05:00 +15°C° 1.3 mm 8 m/s 759 mmHg 87%
    06:00 +15°C° 1.3 mm 8 m/s 759 mmHg 87%
    07:00 +15°C° 1.3 mm 8 m/s 760 mmHg 87%
    08:00 +16°C° 0.4 mm 7 m/s 760 mmHg 81%
    09:00 +16°C° 0.4 mm 7 m/s 761 mmHg 76%
    10:00 +17°C° 0.4 mm 6 m/s 761 mmHg 70%
    11:00 +17°C° 0.2 mm 6 m/s 761 mmHg 69%
    12:00 +19°C° 0.2 mm 6 m/s 761 mmHg 68%
    13:00 +19°C° 0.2 mm 6 m/s 761 mmHg 67%
    14:00 +17°C° 0.1 mm 6 m/s 761 mmHg 70%
    15:00 +17°C° 0.1 mm 6 m/s 761 mmHg 73%
    16:00 +16°C° 0.1 mm 6 m/s 761 mmHg 76%
    17:00 +16°C° 0 mm 6 m/s 761 mmHg 78%
    18:00 +15°C° 0 mm 6 m/s 761 mmHg 79%
    19:00 +15°C° 0 mm 6 m/s 761 mmHg 80%
    20:00 +15°C° 0 mm 5 m/s 762 mmHg 80%
    21:00 +14°C° 0 mm 5 m/s 762 mmHg 80%
    22:00 +14°C° 0 mm 4 m/s 762 mmHg 80%
    23:00 +14°C° 0 mm 4 m/s 762 mmHg 80%

    Depois de amanhã, 21 Novembro, Quinta-feira

    Tempo Temperatura Precipitação Vento Pressão Humidade
    00:00 +14°C° 0 mm 4 m/s 762 mmHg 81%
    01:00 +14°C° 0 mm 4 m/s 762 mmHg 81%
    02:00 +13°C° 0 mm 4 m/s 762 mmHg 81%
    03:00 +13°C° 0 mm 4 m/s 762 mmHg 81%
    04:00 +13°C° 0 mm 4 m/s 761 mmHg 81%
    05:00 +13°C° 0 mm 4 m/s 761 mmHg 81%
    06:00 +13°C° 0 mm 4 m/s 761 mmHg 80%
    07:00 +13°C° 0 mm 4 m/s 761 mmHg 79%
    08:00 +14°C° 0 mm 4 m/s 761 mmHg 74%
    09:00 +16°C° 0 mm 3 m/s 761 mmHg 69%
    10:00 +17°C° 0 mm 3 m/s 761 mmHg 63%
    11:00 +18°C° 0 mm 3 m/s 761 mmHg 60%
    12:00 +18°C° 0 mm 2 m/s 761 mmHg 56%
    13:00 +18°C° 0 mm 2 m/s 760 mmHg 53%
    14:00 +18°C° 0 mm 2 m/s 760 mmHg 57%
    15:00 +18°C° 0 mm 1 m/s 760 mmHg 62%
    16:00 +15°C° 0 mm 0 m/s 759 mmHg 66%
    17:00 +16°C° 0 mm 1 m/s 760 mmHg 67%
    18:00 +16°C° 0 mm 1 m/s 760 mmHg 68%
    19:00 +15°C° 0 mm 1 m/s 760 mmHg 69%
    20:00 +15°C° 0 mm 2 m/s 760 mmHg 68%
    21:00 +15°C° 0 mm 2 m/s 760 mmHg 68%
    22:00 +14°C° 0 mm 2 m/s 760 mmHg 68%
    23:00 +14°C° 0 mm 2 m/s 760 mmHg 68%

    22 Novembro, Sexta-feira

    Tempo Temperatura Precipitação Vento Pressão Humidade
    00:00 +14°C° 0 mm 2 m/s 760 mmHg 67%
    01:00 +13°C° 0 mm 3 m/s 760 mmHg 67%
    02:00 +13°C° 0 mm 3 m/s 760 mmHg 67%
    03:00 +13°C° 0 mm 3 m/s 760 mmHg 67%
    04:00 +13°C° 0 mm 3 m/s 759 mmHg 67%
    05:00 +13°C° 0 mm 3 m/s 760 mmHg 68%
    06:00 +13°C° 0 mm 3 m/s 760 mmHg 68%
    07:00 +13°C° 0 mm 3 m/s 760 mmHg 69%
    08:00 +14°C° 0 mm 3 m/s 760 mmHg 66%
    09:00 +16°C° 0 mm 2 m/s 761 mmHg 64%
    10:00 +17°C° 0 mm 2 m/s 761 mmHg 61%
    11:00 +17°C° 0 mm 2 m/s 761 mmHg 61%
    12:00 +18°C° 0 mm 3 m/s 761 mmHg 61%
    13:00 +18°C° 0 mm 3 m/s 760 mmHg 61%
    14:00 +17°C° 0 mm 3 m/s 760 mmHg 65%
    15:00 +17°C° 0 mm 3 m/s 760 mmHg 69%
    16:00 +16°C° 0 mm 3 m/s 760 mmHg 73%
    17:00 +14°C° 0 mm 3 m/s 761 mmHg 74%
    18:00 +15°C° 0 mm 2 m/s 761 mmHg 75%
    19:00 +14°C° 0 mm 2 m/s 761 mmHg 76%
    20:00 +14°C° 0 mm 2 m/s 761 mmHg 75%
    21:00 +14°C° 0 mm 2 m/s 762 mmHg 75%
    22:00 +14°C° 0 mm 2 m/s 762 mmHg 75%
    23:00 +14°C° 0 mm 1 m/s 762 mmHg 75%

    23 Novembro, Sábado

    Tempo Temperatura Precipitação Vento Pressão Humidade
    00:00 +14°C° 0 mm 1 m/s 762 mmHg 75%
    01:00 +14°C° 0 mm 1 m/s 762 mmHg 75%
    02:00 +14°C° 0 mm 1 m/s 761 mmHg 75%
    03:00 +14°C° 0 mm 1 m/s 761 mmHg 74%
    04:00 +14°C° 0 mm 1 m/s 761 mmHg 74%
    05:00 +14°C° 0 mm 1 m/s 761 mmHg 74%
    06:00 +14°C° 0 mm 1 m/s 761 mmHg 74%
    07:00 +14°C° 0 mm 1 m/s 761 mmHg 73%
    08:00 +15°C° 0 mm 2 m/s 761 mmHg 71%
    09:00 +16°C° 0 mm 2 m/s 762 mmHg 69%
    10:00 +17°C° 0 mm 3 m/s 762 mmHg 67%
    11:00 +17°C° 0.2 mm 4 m/s 761 mmHg 69%
    12:00 +17°C° 0.2 mm 4 m/s 761 mmHg 70%
    13:00 +17°C° 0.2 mm 5 m/s 760 mmHg 71%
    14:00 +16°C° 0.1 mm 5 m/s 760 mmHg 74%
    15:00 +16°C° 0.1 mm 6 m/s 760 mmHg 77%
    16:00 +15°C° 0.1 mm 6 m/s 760 mmHg 79%
    17:00 +15°C° 0 mm 6 m/s 760 mmHg 79%
    18:00 +14°C° 0 mm 7 m/s 760 mmHg 79%
    19:00 +14°C° 0 mm 7 m/s 760 mmHg 78%
    20:00 +13°C° 0.1 mm 8 m/s 760 mmHg 77%
    21:00 +12°C° 0.1 mm 8 m/s 760 mmHg 75%
    22:00 +12°C° 0.1 mm 8 m/s 760 mmHg 74%
    23:00 +12°C° 0.1 mm 8 m/s 760 mmHg 73%

    24 Novembro, Domingo

    Tempo Temperatura Precipitação Vento Pressão Humidade
    00:00 +12°C° 0.1 mm 9 m/s 760 mmHg 72%
    01:00 +12°C° 0.1 mm 9 m/s 760 mmHg 72%
    02:00 +12°C° 0.1 mm 9 m/s 760 mmHg 71%
    03:00 +12°C° 0.1 mm 9 m/s 760 mmHg 71%
    04:00 +12°C° 0.1 mm 9 m/s 759 mmHg 70%
    05:00 +12°C° 0 mm 9 m/s 759 mmHg 71%
    06:00 +12°C° 0 mm 8 m/s 759 mmHg 71%
    07:00 +12°C° 0 mm 8 m/s 759 mmHg 71%
    08:00 +13°C° 0 mm 8 m/s 759 mmHg 67%
    09:00 +15°C° 0 mm 7 m/s 760 mmHg 64%
    10:00 +17°C° 0 mm 7 m/s 760 mmHg 60%
    11:00 +17°C° 0 mm 6 m/s 759 mmHg 57%
    12:00 +19°C° 0 mm 6 m/s 759 mmHg 54%
    13:00 +20°C° 0 mm 5 m/s 759 mmHg 50%
    14:00 +19°C° 0 mm 5 m/s 758 mmHg 54%
    15:00 +18°C° 0 mm 4 m/s 758 mmHg 57%
    16:00 +17°C° 0 mm 4 m/s 758 mmHg 61%
    17:00 +17°C° 0 mm 4 m/s 758 mmHg 63%
    18:00 +15°C° 0 mm 4 m/s 758 mmHg 65%
    19:00 +15°C° 0 mm 4 m/s 758 mmHg 67%
    20:00 +14°C° 0 mm 5 m/s 757 mmHg 67%
    21:00 +14°C° 0 mm 5 m/s 757 mmHg 68%
    22:00 +14°C° 0 mm 5 m/s 757 mmHg 69%
    23:00 +13°C° 0 mm 5 m/s 757 mmHg 70%
    Mostrar mais